Regional Weather Roundup
Issued by NWS

Home | Current Version | Previous Version | Text Only | Print | Product List | Glossary Off
Versions: 1 2 3 4 5 6 7 8 9 10 11 12 13 14 15 16 17 18 19 20 21 22 23 24 25 26 27 28 29 30 31 32 33 34 35 36 37 38 39 40 41 42 43 44 45 46 47 48 49 50

000
ASUS43 KLOT 290906
RWRIL

ILLINOIS REGIONAL WEATHER ROUNDUP
NATIONAL WEATHER SERVICE CHICAGO/ROMEOVILLE IL
300 AM CST THU JAN 29 2015

NOTE: "FAIR" INDICATES FEW OR NO CLOUDS BELOW 12,000 FEET WITH NO
SIGNIFICANT WEATHER AND/OR OBSTRUCTIONS TO VISIBILITY.

* THESE STATIONS ARE NOT UNDER NWS QUALITY CONTROL. THEY ALSO MAY NOT
  REPORT WEATHER SUCH AS PRECIPITATION OR FOG.

ILZ001-002-007-009-015-016-024-291000-
NORTHWEST ILLINOIS

CITY           SKY/WX    TMP DP  RH WIND       PRES   REMARKS
MOLINE         PTCLDY    35  30  82 NW6       29.69R WCI  30
STERLING*      PTCLDY    30  27  86 E3        29.69F
SAVANNA*       PTCLDY    30  28  93 N3        29.71F FOG
$$

ILZ003-004-008-010-011-017-018-291000-
NORTH CENTRAL ILLINOIS

CITY           SKY/WX    TMP DP  RH WIND       PRES   REMARKS
ROCKFORD       MOCLDY    31  26  82 E3        29.73F
FREEPORT*      MOCLDY    26  25  95 CALM      29.73F FOG
ROCHELLE*      PTCLDY    30  28  91 SE5       29.71F WCI  25
DE KALB*       MOCLDY    31  27  86 SE8       29.71F WCI  24
PERU*          PTCLDY    35  31  85 SE7       29.70F WCI  29
$$

ILZ005-006-012>014-019>023-291000-
NORTHEAST ILLINOIS

CITY           SKY/WX    TMP DP  RH WIND       PRES   REMARKS
CHICAGO-OHARE  CLOUDY    35  27  72 S7        29.73F WCI  29
CHICAGO-MIDWAY CLOUDY    38  27  64 S10       29.73F WCI  31
AURORA         CLOUDY    36  28  73 SE7       29.72F WCI  30
LANSING*       CLOUDY    36  27  69 S12       29.75F WCI  28
JOLIET*        CLOUDY    36  28  73 S7        29.73F WCI  30
WAUKEGAN       CLOUDY    33  26  75 CALM      29.73F
DUPAGE AIRPORT CLOUDY    35  27  72 S7        29.72F WCI  29
KANKAKEE*      PTCLDY    37  30  76 S15       29.74F WCI  28
WHEELING       CLOUDY    35  26  69 S9        29.75F WCI  28
MORRIS*        CLOUDY    35  31  85 SE7       29.71F WCI  29
ROMEOVILLE*    CLOUDY    36  28  73 S12       29.73F WCI  27
NORTHERLY ISL    N/A     37  26  65 S9          N/A  WCI  30
$$

LMZ740>746-291000-
SOUTHERN LAKE MICHIGAN

STATION/POSITION SKY/WX   TEMP    WIND        PRES    VSBY  WAVE
                          AIR SEA DIR/SP/G                  HT/PER
                          (F)     (DEG/KT/KT) (MB)    (MI)  (FT/S)
WAUKEGAN HARBOR            33     140/  8/ 11   N/A
HARRISON CRIB              34     160/ 11/ 13   N/A
BURNHAM HARBOR             37     180/  4/ 10   N/A
CALUMET HARBOR             37     170/  9/ 14   N/A
MICHIGAN CITY              36     140/ 17/ 22   N/A
$$

ILZ025>027-034>036-040-047-049-050-058-095>099-291000-
WEST-CENTRAL ILLINOIS

CITY           SKY/WX    TMP DP  RH WIND       PRES   REMARKS
QUINCY         CLOUDY    45  36  70 NW23G30   29.76R
GALESBURG*     PTCLDY    37  34  87 SW8       29.68R WCI  31
MACOMB*        PTCLDY    41  36  83 W23       29.72R
JACKSONVILLE*  MOCLDY    45  37  74 SW12      29.73R
PITTSFIELD*    MOCLDY    51  38  62 W14G22    29.75R
$$

ILZ028>032-037-038-041>044-048-051>054-059>061-291000-
CENTRAL ILLINOIS

CITY           SKY/WX    TMP DP  RH WIND       PRES   REMARKS
PONTIAC        PTCLDY    37  32  82 S9        29.71F WCI  30
BLOOMINGTON    MOCLDY    37  33  85 S15       29.70F WCI  28
DECATUR        CLOUDY    42  33  70 S17       29.73F
PEORIA         MOCLDY    39  33  79 S8        29.68F WCI  33
LACON*         PTCLDY    38  32  80 SW7       29.67F WCI  32
LINCOLN*       MOCLDY    42  35  73 SW14G23   29.70F
SPRINGFIELD    CLOUDY    44  35  70 S22G28    29.72F
TAYLORVILLE    CLOUDY    41  34  75 S15       29.74F
$$

ILZ033-039-045-046-055>057-062-063-291000-
EAST-CENTRAL ILLINOIS

CITY           SKY/WX    TMP DP  RH WIND       PRES   REMARKS
CHAMPAIGN      CLOUDY    38  31  76 S21       29.73F WCI  28
DANVILLE*      MOCLDY    39  29  68 S18G25    29.74F WCI  30
RANTOUL*       CLOUDY    38  32  80 S12       29.74F WCI  30
MATTOON        CLOUDY    40  31  70 S15G26    29.76F
PARIS*         MOCLDY    38  32  77 S14G20    29.80F WCI  30
$$

ILZ079-100>102-291000-
SOUTHWEST ILLINOIS

CITY           SKY/WX    TMP DP  RH WIND       PRES   REMARKS
ALTON          CLOUDY    47  38  71 S10       29.77F
BELLEVILLE     CLOUDY    50  40  70 VRB6      29.78F
CAHOKIA*       CLOUDY    53  40  61 SW9G23    29.77F
SPARTA*        CLOUDY    49  37  64 S13G21    29.83S
$$

ILZ064>066-069>071-074>076-080>082-084>086-088>090-092>094-291000-
SOUTH-CENTRAL ILLINOIS

CITY           SKY/WX    TMP DP  RH WIND       PRES   REMARKS
CARBONDALE     CLOUDY    51  35  54 SW15G26   29.87S
CAIRO*         CLOUDY    53  37  56 S13G18    29.90F
EFFINGHAM*     CLOUDY    43  30  60 SE7       29.81F
MARION         CLOUDY    52  36  54 S20G30    29.86F
MT. VERNON     CLOUDY    46  34  61 SW13      29.84F
CENTRALIA*     CLOUDY    49  35  58 S18       29.81F
SALEM*         CLOUDY    48  36  62 S13       29.81F
METROPOLIS*    CLOUDY    53  36  52 S15G21    29.90F
$$

ILZ067-068-072-073-078-083-087-091-291000-
SOUTHEAST ILLINOIS

CITY           SKY/WX    TMP DP  RH WIND       PRES   REMARKS
LAWRENCEVILLE  CLOUDY    41  33  73 S15       29.85F
FLORA*         CLOUDY    42  34  72 S10       29.84F
FAIRFIELD*     CLOUDY    46  35  64 S10       29.84F
HARRISBURG*    CLOUDY    51  35  53 SW17G26   29.87F
ROBINSON*      CLOUDY    40  33  75 S14G21    29.85F
CARMI*         CLOUDY    48  37  64 S13       29.87F
$$

ABBREVIATIONS USED IN REMARKS
   TC - TEMPERATURE IN CELSIUS
  WCI - WIND CHILL INDEX
   HX - HEAT INDEX
  VSB - VISIBILITY
$$



USA.gov is the U.S. government's official web portal to all federal, state and local government web resources and services.